| time (UTC) | temp C | wind direction | speed KPH | gust KPH | rain 1hr cm | rain 24hr cm | rain mn cm | humidity % | barometer mb |
| 20260507091544 | 9 | 14 | 0.0 | 0.0 | 0.00 | 0.00 | 0.00 | 100 | 1015.9 |
| 20260507090044 | 9 | 14 | 0.0 | 0.0 | 0.00 | 0.00 | 0.00 | 100 | 1015.7 |
| 20260507084543 | 9 | 14 | 0.0 | 0.0 | 0.00 | 0.00 | 0.00 | 100 | 1015.7 |
| 20260507083041 | 9 | 15 | 0.0 | 0.0 | 0.00 | 0.00 | 0.00 | 100 | 1016.1 |
| 20260507081542 | 10 | 14 | 0.0 | 0.0 | 0.00 | 0.00 | 0.00 | 100 | 1015.8 |
| 20260507080039 | 10 | 14 | 0.0 | 0.0 | 0.00 | 0.00 | 0.00 | 100 | 1015.7 |
| 20260507074536 | 10 | 14 | 0.0 | 0.0 | 0.00 | 0.00 | 0.00 | 100 | 1016.0 |
| 20260507073034 | 10 | 14 | 0.0 | 0.0 | 0.00 | 0.00 | 0.00 | 100 | 1015.8 |
| 20260507071536 | 11 | 14 | 0.0 | 0.0 | 0.00 | 0.00 | 0.00 | 100 | 1016.0 |
| 20260507070043 | 10 | 14 | 0.0 | 0.0 | 0.00 | 0.00 | 0.00 | 100 | 1016.4 |
| 20260507064535 | 10 | 14 | 0.0 | 0.0 | 0.00 | 0.00 | 0.00 | 100 | 1015.7 |
| 20260507063035 | 10 | 14 | 0.0 | 0.0 | 0.00 | 0.00 | 0.00 | 100 | 1015.6 |
| 20260507061531 | 10 | 15 | 0.0 | 0.0 | 0.00 | 0.00 | 0.00 | 100 | 1015.8 |
| 20260507060030 | 10 | 14 | 0.0 | 0.0 | 0.00 | 0.00 | 0.00 | 100 | 1015.8 |
| 20260507054529 | 10 | 15 | 0.0 | 4.8 | 0.00 | 0.00 | 0.00 | 100 | 1015.8 |
| 20260507053028 | 10 | 306 | 0.0 | 1.6 | 0.00 | 0.00 | 0.00 | 100 | 1015.7 |
| 20260507051526 | 10 | 306 | 0.0 | 1.6 | 0.00 | 0.00 | 0.00 | 100 | 1015.9 |
| 20260507050029 | 11 | 316 | 0.0 | 3.2 | 0.00 | 0.00 | 0.00 | 100 | 1015.8 |
| 20260507044522 | 11 | 270 | 0.0 | 0.0 | 0.00 | 0.00 | 0.00 | 100 | 1015.5 |
| 20260507043022 | 11 | 241 | 0.0 | 0.0 | 0.00 | 0.00 | 0.00 | 100 | 1015.9 |
| 20260507041521 | 11 | 241 | 0.0 | 0.0 | 0.00 | 0.00 | 0.00 | 100 | 1016.2 |
| 20260507040020 | 11 | 241 | 0.0 | 0.0 | 0.00 | 0.00 | 0.00 | 100 | 1016.5 |
| 20260507034521 | 11 | 241 | 0.0 | 0.0 | 0.00 | 0.00 | 0.00 | 100 | 1016.5 |
| 20260507033026 | 11 | 241 | 0.0 | 0.0 | 0.00 | 0.00 | 0.00 | 100 | 1016.3 |
| 20260507031519 | 11 | 241 | 0.0 | 0.0 | 0.00 | 0.00 | 0.00 | 100 | 1016.3 |
| 20260507030015 | 11 | 241 | 0.0 | 1.6 | 0.00 | 0.00 | 0.00 | 99 | 1015.9 |
| 20260507024514 | 11 | 241 | 0.0 | 1.6 | 0.00 | 0.00 | 0.00 | 99 | 1015.9 |
| 20260507023014 | 11 | 240 | 0.0 | 1.6 | 0.00 | 0.00 | 0.00 | 99 | 1015.6 |
| 20260507021514 | 11 | 241 | 0.0 | 3.2 | 0.00 | 0.00 | 0.00 | 99 | 1015.7 |
| 20260507020013 | 11 | 289 | 1.6 | 4.8 | 0.00 | 0.00 | 0.00 | 99 | 1014.8 |
| 20260507014512 | 11 | 295 | 0.0 | 0.0 | 0.00 | 0.00 | 0.00 | 99 | 1015.3 |
| 20260507013016 | 11 | 307 | 0.0 | 3.2 | 0.00 | 0.00 | 0.00 | 99 | 1014.9 |
| 20260507011525 | 11 | 310 | 0.0 | 4.8 | 0.00 | 0.00 | 0.00 | 99 | 1015.2 |
| 20260507010011 | 11 | 226 | 0.0 | 1.6 | 0.00 | 0.00 | 0.00 | 99 | 1015.3 |
| 20260507004510 | 11 | 226 | 0.0 | 1.6 | 0.00 | 0.00 | 0.00 | 99 | 1015.2 |
| 20260507003010 | 11 | 205 | 0.0 | 3.2 | 0.00 | 0.00 | 0.00 | 99 | 1015.1 |
| 20260507001511 | 11 | 242 | 0.0 | 1.6 | 0.00 | 0.00 | 0.00 | 99 | 1015.8 |
| 20260507000007 | 11 | 302 | 0.0 | 1.6 | 0.00 | 0.00 | 0.00 | 99 | 1015.7 |
| 20260506234507 | 11 | 301 | 0.0 | 1.6 | 0.00 | 0.00 | 0.00 | 99 | 1015.0 |
| 20260506233007 | 11 | 301 | 0.0 | 4.8 | 0.00 | 0.00 | 0.00 | 99 | 1014.8 |
| 20260506231506 | 11 | 290 | 0.0 | 4.8 | 0.00 | 0.00 | 0.00 | 99 | 1014.3 |
| 20260506230007 | 11 | 290 | 0.0 | 6.4 | 0.00 | 0.00 | 0.00 | 99 | 1014.2 |
| 20260506224505 | 11 | 313 | 0.0 | 3.2 | 0.00 | 0.00 | 0.00 | 99 | 1013.9 |
| 20260506223004 | 12 | 289 | 0.0 | 3.2 | 0.00 | 0.00 | 0.00 | 99 | 1013.9 |
| 20260506221504 | 12 | 290 | 0.0 | 3.2 | 0.00 | 0.00 | 0.00 | 99 | 1014.1 |
| 20260506220004 | 12 | 120 | 1.6 | 3.2 | 0.00 | 0.00 | 0.00 | 99 | 1013.7 |
| 20260506214502 | 12 | 120 | 0.0 | 4.8 | 0.00 | 0.00 | 0.00 | 99 | 1014.7 |
| 20260506213004 | 12 | 243 | 0.0 | 3.2 | 0.00 | 0.00 | 0.00 | 99 | 1015.1 |
| 20260506211501 | 12 | 305 | 0.0 | 1.6 | 0.00 | 0.00 | 0.00 | 99 | 1014.1 |
| 20260506210000 | 11 | 355 | 0.0 | 3.2 | 0.00 | 0.00 | 0.00 | 99 | 1014.8 |
| 20260506204601 | 11 | 242 | 0.0 | 3.2 | 0.00 | 0.00 | 0.00 | 99 | 1014.7 |
| 20260506203100 | 11 | 311 | 0.0 | 4.8 | 0.00 | 0.00 | 0.00 | 99 | 1015.3 |
| 20260506201600 | 11 | 285 | 0.0 | 3.2 | 0.00 | 0.00 | 0.00 | 99 | 1014.9 |
| 20260506200104 | 11 | 309 | 0.0 | 4.8 | 0.00 | 0.00 | 0.00 | 99 | 1014.7 |
| 20260506194559 | 11 | 339 | 1.6 | 6.4 | 0.00 | 0.00 | 0.00 | 99 | 1015.2 |
| 20260506193059 | 11 | 295 | 0.0 | 3.2 | 0.00 | 0.00 | 0.00 | 99 | 1015.5 |
| 20260506191558 | 11 | 304 | 0.0 | 8.0 | 0.00 | 0.00 | 0.00 | 99 | 1015.1 |
| 20260506184556 | 11 | 305 | 1.6 | 4.8 | 0.00 | 0.00 | 0.00 | 99 | 1014.6 |
| 20260506183056 | 11 | 116 | 0.0 | 6.4 | 0.00 | 0.00 | 0.00 | 99 | 1015.0 |
| 20260506181558 | 11 | 218 | 0.0 | 4.8 | 0.00 | 0.00 | 0.00 | 99 | 1014.9 |
| 20260506180055 | 11 | 246 | 0.0 | 1.6 | 0.00 | 0.00 | 0.00 | 99 | 1014.7 |
| 20260506174556 | 11 | 259 | 0.0 | 1.6 | 0.00 | 0.00 | 0.00 | 99 | 1015.2 |
| 20260506173124 | 10 | 242 | 0.0 | 3.2 | 0.00 | 0.00 | 0.00 | 99 | 1015.4 |
| 20260506171559 | 11 | 319 | 0.0 | 4.8 | 0.00 | 0.00 | 0.00 | 99 | 1014.9 |
| 20260506170050 | 11 | 315 | 1.6 | 4.8 | 0.00 | 0.00 | 0.00 | 99 | 1014.7 |
| 20260506164556 | 11 | 62 | 0.0 | 8.0 | 0.00 | 0.00 | 0.00 | 99 | 1014.7 |
| 20260506163058 | 11 | 1 | 0.0 | 6.4 | 0.00 | 0.00 | 0.00 | 99 | 1014.3 |
| 20260506161603 | 11 | 329 | 0.0 | 6.4 | 0.00 | 0.00 | 0.00 | 99 | 1014.5 |
| 20260506160047 | 11 | 234 | 0.0 | 3.2 | 0.00 | 0.00 | 0.00 | 99 | 1013.7 |
| 20260506154551 | 11 | 107 | 0.0 | 4.8 | 0.00 | 0.00 | 0.00 | 99 | 1014.4 |
| 20260506153048 | 11 | 326 | 0.0 | 4.8 | 0.00 | 0.00 | 0.00 | 99 | 1014.4 |
| 20260506151548 | 11 | 229 | 0.0 | 3.2 | 0.00 | 0.00 | 0.00 | 99 | 1013.8 |
| 20260506150045 | 11 | 273 | 1.6 | 4.8 | 0.00 | 0.00 | 0.00 | 99 | 1014.9 |
| 20260506144544 | 11 | 181 | 0.0 | 3.2 | 0.00 | 0.00 | 0.00 | 99 | 1014.4 |
| 20260506143045 | 11 | 266 | 0.0 | 3.2 | 0.00 | 0.00 | 0.00 | 99 | 1014.2 |
| 20260506141540 | 11 | 248 | 0.0 | 6.4 | 0.00 | 0.00 | 0.00 | 99 | 1014.1 |
| 20260506140041 | 11 | 309 | 0.0 | 6.4 | 0.00 | 0.00 | 0.00 | 99 | 1013.9 |
| 20260506134538 | 11 | 303 | 0.0 | 4.8 | 0.00 | 0.00 | 0.00 | 99 | 1013.6 |
| 20260506133038 | 11 | 252 | 0.0 | 3.2 | 0.00 | 0.00 | 0.00 | 99 | 1013.4 |
| 20260506131545 | 11 | 267 | 0.0 | 4.8 | 0.00 | 0.00 | 0.00 | 99 | 1013.0 |
| 20260506130044 | 11 | 69 | 0.0 | 1.6 | 0.00 | 0.00 | 0.00 | 99 | 1012.6 |
| 20260506124531 | 11 | 69 | 0.0 | 3.2 | 0.00 | 0.00 | 0.00 | 99 | 1012.2 |
| 20260506123030 | 11 | 72 | 0.0 | 1.6 | 0.00 | 0.00 | 0.00 | 99 | 1011.8 |
| 20260506121529 | 11 | 62 | 0.0 | 8.0 | 0.00 | 0.00 | 0.00 | 99 | 1011.8 |
| 20260506120032 | 11 | 288 | 0.0 | 4.8 | 0.00 | 0.00 | 0.00 | 99 | 1011.0 |
| 20260506114534 | 11 | 334 | 1.6 | 4.8 | 0.00 | 0.00 | 0.00 | 99 | 1010.4 |
| 20260506113028 | 11 | 293 | 0.0 | 3.2 | 0.00 | 0.00 | 0.00 | 99 | 1010.7 |
| 20260506111526 | 11 | 311 | 0.0 | 1.6 | 0.00 | 0.00 | 0.00 | 99 | 1011.5 |
| 20260506110027 | 11 | 231 | 0.0 | 1.6 | 0.00 | 0.00 | 0.00 | 98 | 1011.8 |
| 20260506104527 | 11 | 136 | 0.0 | 4.8 | 0.00 | 0.00 | 0.00 | 98 | 1011.9 |
| 20260506103022 | 11 | 311 | 0.0 | 3.2 | 0.00 | 0.00 | 0.00 | 98 | 1010.4 |
| 20260506101533 | 11 | 256 | 0.0 | 3.2 | 0.00 | 0.00 | 0.00 | 98 | 1010.5 |
| 20260506100018 | 11 | 320 | 0.0 | 4.8 | 0.00 | 0.00 | 0.00 | 98 | 1009.7 |
| 20260506094523 | 11 | 293 | 0.0 | 1.6 | 0.00 | 0.00 | 0.00 | 98 | 1010.6 |
| 20260506093018 | 11 | 328 | 0.0 | 3.2 | 0.00 | 0.00 | 0.00 | 98 | 1009.7 |